User: anonymous   Login
Location: Hungerford
(51.4167°N, 1.5167°W)
Time: 12:37:37
(UTC+00:00)
Language:

SL-08 RB Rocket - Orbit

View from above orbital plane
View from above orbital plane
View from above satellite
View from above satellite

Ground track
Ground track

The orbit data is extracted from the following two-line orbital elements,

1 26387U 00033D   20330.88440389 +.00000169 +00000-0 +37067-4 0  9997
2 26387 097.7995 005.1287 0025072 289.5513 121.0067 14.68599546350143
Epoch (UTC): 25 November 2020 21:13:32
Eccentricity: 0.0025072
inclination: 97.7995°
perigee height: 648 km
apogee height: 683 km
right ascension of ascending node: 5.1287°
argument of perigee: 289.5513°
revolutions per day: 14.68599546
mean anomaly at epoch: 121.0067°
orbit number at epoch: 35014

The dashed part of the orbit path shows where the satellite is in the earth's shadow,  

DLR